Location: Glens Falls
(43.3090°N, 73.6440°W)
Time: 09:36:11
(UTC-05:00)

Daily predictions for brighter satellites

Satellite Brightness Start Highest point End
(mag) Time Altitude Azimuth Time Altitude Azimuth Time Altitude Azimuth
SL-16 R/B 3.0 17:18:04 10° SSE 17:22:59 32° ESE 17:27:55 10° NE
Meteor 2-10 4.2 17:19:51 10° N 17:24:50 48° ENE 17:29:54 10° SSE
COSMOS 2428 4.0 17:19:31 10° SW 17:24:51 40° WNW 17:30:13 10° NNE
SPOT 3 Rocket 3.5 17:20:46 10° SSE 17:25:55 82° ENE 17:31:07 10° NNW
Cosmos 44 Rocket 4.0 17:21:47 10° SW 17:26:49 55° NW 17:31:47 10° NNE
CZ-3A R/B 3.2 17:24:21 10° NW 17:29:45 43° NNE 17:34:32 10° E
CZ-4C R/B 4.5 17:30:23 10° NNW 17:33:27 13° N 17:36:41 10° NE
Cosmos 2297 3.9 17:29:04 10° NNW 17:34:40 54° ENE 17:40:15 10° SE
SL-14 R/B 3.2 17:32:11 10° S 17:36:08 74° E 17:40:07 10° NNE
Cosmos 304 Rocket 4.1 17:33:29 10° S 17:38:04 46° ESE 17:42:40 10° NNE
Cosmos 1484 Rocket 2.9 17:34:24 10° SSE 17:38:16 57° ENE 17:42:13 10° N
Resurs 01 Rocket 3.4 17:36:44 10° E 17:38:30 12° ENE 17:40:16 10° NE
Cosmos 1340 Rocket 3.0 17:36:13 10° S 17:40:00 47° E 17:43:47 10° NNE
Cosmos 2279 Rocket 4.0 17:37:04 10° N 17:43:16 67° E 17:49:28 10° SSE
Meteor 1-28 Rocket 4.0 17:41:40 10° NNE 17:45:00 30° E 17:48:19 10° SSE
Lacrosse 4 Rocket 2.5 17:42:03 10° N 17:45:20 23° NE 17:48:36 10° ESE
Cosmos 1151 Rocket 3.4 17:41:55 10° NNW 17:46:11 67° W 17:50:26 10° S
Cosmos 372 Rocket 4.3 17:45:50 10° NNW 17:50:55 69° WSW 17:55:58 10° S
IDEFIX/ARIANE 42P 3.9 17:47:51 10° S 17:52:49 44° W 17:57:51 10° NNW
Cosmos 540 Rocket 4.0 17:49:55 10° SSW 17:55:02 62° WNW 18:00:11 10° NNE
Aureole 2 Rocket 3.0 17:51:22 10° SSW 17:55:09 72° WNW 17:59:17 10° NNE
NOAA 12 4.3 17:54:56 10° SE 17:59:56 47° ENE 18:04:59 10° N
USA 215 3.5 17:53:54 10° ESE 18:00:10 51° NNE 18:06:28 10° NW
Cosmos 2058 3.1 17:57:58 10° SSW 18:02:04 75° W 18:06:11 10° N
Nadezhda 4 Rocket 4.2 17:57:57 10° SSE 18:03:53 48° E 18:09:55 10° NNE
ATLAS 5 CENTAUR R/B 4.0 18:00:44 10° N 18:03:53 15° NNE 18:05:48 13° NE
Lacrosse 5 3.7 18:02:04 10° NW 18:05:23 17° N 18:08:06 12° NE
Cosmos 1805 Rocket 3.5 18:01:17 10° S 18:05:42 69° E 18:10:09 10° NNE
SKYMED 2 3.5 18:02:34 10° NNE 18:06:56 84° ESE 18:11:17 10° SSW
Cosmos 2242 Rocket 4.2 18:02:57 10° N 18:06:59 33° ENE 18:10:59 10° SE
Cosmos 1900 4.4 18:03:02 10° NNW 18:08:01 84° WSW 18:13:01 10° SSE
Cosmos 1461 2.8 18:04:32 10° SSW 18:08:43 89° WNW 18:12:04 15° NNE
Cosmos 2180 Rocket 4.5 18:06:08 10° N 18:12:20 89° W 18:18:35 10° S
Cosmos 1626 2.0 18:11:06 10° S 18:14:49 67° E 18:18:33 10° NNE
Aureole 1 Rocket 4.1 18:11:47 10° S 18:17:04 49° E 18:23:56 10° NNE
Sich 1 3.0 18:14:23 10° S 18:18:45 62° E 18:23:08 10° NNE
Cosmos 2219 Rocket 4.0 18:15:47 10° WSW 18:20:30 27° NW 18:25:15 10° N
Lacrosse 5 rocket 3.8 18:17:46 10° WNW 18:20:47 22° SW 18:23:55 10° S
Cosmos 1943 Rocket 4.0 18:19:28 10° NNE 18:21:10 13° NNE 18:21:10 13° NNE
Cosmos 1356 Rocket 3.2 18:18:08 10° S 18:22:06 79° E 18:26:07 10° NNE
ALOS 2.7 18:20:26 10° SE 18:24:41 36° ENE 18:28:58 10° N
Cosmos 1092 Rocket 4.1 18:20:08 10° SSE 18:26:13 52° E 18:32:20 10° NNE
Cosmos 2333 Rocket 3.9 18:22:22 10° WSW 18:27:17 30° NW 18:32:14 10° N
Cosmos 1603 4.1 18:22:33 10° S 18:27:42 39° ESE 18:30:07 26° ENE
Cosmos 1633 Rocket 2.9 18:24:42 10° S 18:29:05 70° E 18:33:28 10° NNE
FengYun 1-2 T 4.4 18:25:28 10° SE 18:30:45 47° ENE 18:36:01 10° N
CENTAUR R/B 4.4 18:29:09 10° WNW 18:34:12 23° NNW 18:39:44 10° NNE
Cosmos 292 Rocket 4.2 18:30:17 10° S 18:34:42 39° ESE 18:35:32 36° ENE
Coronas F rocket 3.2 18:32:47 10° S 18:33:36 19° S 18:33:36 19° S
Cosmos 1455 2.2 18:31:58 10° N 18:35:47 78° W 18:39:35 10° S
USA 229 DEB 3.6 18:36:11 10° SSW 18:42:58 69° ESE 18:47:09 26° NE
USA 229 3.6 18:36:17 10° SSW 18:43:04 68° ESE 18:47:12 26° NE
Abrixas 3.7 18:40:29 10° WNW 18:42:57 32° NNW 18:42:57 32° NNW
Cosmos 1242 Rocket 4.3 18:43:35 10° N 18:44:49 20° N 18:44:49 20° N
Cosmos 1184 Rocket 3.3 18:43:52 10° SSW 18:47:10 59° WNW 18:48:42 28° N
SJ-6B 3.1 18:45:06 10° S 18:49:11 72° WSW 18:53:20 10° NNW
Spot 2 Rocket 3.4 18:44:49 10° SSE 18:49:46 59° ENE 18:54:43 10° N
Cosmos 1862 Rocket 4.0 18:46:45 10° N 18:49:59 42° NNE 18:49:59 42° NNE
Orbus 7S? 4.4 18:47:11 10° NW 18:51:27 78° NE 19:00:10 14° SE
Iridium 4 Rocket 2.9 18:49:24 10° S 18:53:50 84° E 18:57:11 16° N
COSMO-SKYMED 1 4.4 18:51:01 10° N 18:54:49 30° WNW 18:58:37 10° SW
SL-19 R/B 4.2 18:51:22 10° SSE 18:57:12 86° ENE 19:02:49 10° NNW
Cosmos 2237 Rocket 4.3 18:54:32 10° WSW 18:58:55 23° NW 19:03:21 10° N
Cosmos 2369 Rocket 2.6 18:56:10 10° NNW 19:01:00 42° NE 19:01:00 42° NE
H-2A ROCKET BODY 4.1 18:46:50 10° WSW 19:05:27 32° SSW 19:09:18 19° SSE
SL-16 R/B 3.4 19:01:40 10° SW 19:06:57 40° WNW 19:11:54 12° N
FREGAT/IRIS 4.5 19:05:07 10° SSW 19:07:53 31° W 19:10:41 10° NNW
Cosmos 1417 Rocket 4.4 19:07:15 10° N 19:13:16 58° ENE 19:13:16 58° ENE
Resurs 01 Rocket 1.7 19:12:15 31° S 19:14:21 77° WSW 19:18:49 10° NNW
Resurs 1-3 4.5 19:16:00 40° NNW 19:16:00 40° NNW 19:18:50 10° NNW
Cosmos 923 Rocket 4.0 19:10:08 10° SSW 19:15:20 77° WNW 19:16:59 44° N
Cosmos 1933 Rocket 3.6 19:12:18 10° SSW 19:16:31 76° WSW 19:16:31 76° WSW
Cosmos 1680 Rocket 3.4 19:16:31 10° SSW 19:21:45 87° WNW 19:22:05 79° N
Cosmos 1655 Rocket 3.9 19:16:49 10° S 19:23:08 70° E 19:24:06 60° NE
Lacrosse 4 Rocket 2.8 19:20:25 10° NW 19:24:08 35° WSW 19:25:17 29° SSW
CZ-4C R/B 3.8 19:18:34 10° NNW 19:23:28 28° NNE 19:23:28 28° NNE
Cosmos 1627 Rocket 4.4 19:19:20 10° S 19:25:31 87° W 19:31:42 10° N
FENGYUN 3A 4.2 19:25:32 10° S 19:30:48 57° W 19:36:07 10° NNW
NOSS 3-1 (C) 3.9 19:28:52 10° SSW 19:32:51 44° S 19:32:51 44° S
USA 215 3.7 19:40:52 40° S 19:43:07 58° SW 19:49:34 10° NW
Cosmos 1943 4.3 19:38:56 10° SSW 19:41:55 33° SSW 19:41:55 33° SSW
ATLAS 3B R/B 4.2 19:42:15 10° NNW 19:45:53 21° N 19:45:53 21° N
Lacrosse 5 3.9 19:45:29 10° NW 19:47:19 19° NNW 19:47:19 19° NNW
ATLAS 5 CENTAUR R/B 3.6 19:44:21 10° NNW 19:47:22 29° N 19:47:22 29° N
Cosmos 2026 Rocket 4.3 19:46:37 10° SSW 19:52:44 61° W 19:55:59 28° N
ALOS 4.4 19:58:25 10° SSW 20:02:12 24° W 20:06:00 10° NW
Cosmos 1943 Rocket 4.2 20:01:16 10° NNW 20:02:44 19° NNW 20:02:44 19° NNW
Cosmos 2369 Rocket 4.4 20:40:36 10° NW 20:42:51 21° WNW 20:42:51 21° WNW
